Time,TemperatureF,DewpointF,PressureIn,WindDirection,WindDirectionDegrees,WindSpeedMPH,WindSpeedGustMPH,Humidity,HourlyPrecipIn,Conditions,Clouds,dailyrainin,SoftwareType,DateUTC
2013-06-12 00:00:00,81.0,71.9,29.77,South,180,1.0,10.0,74,0.00,CLR,SKC,0.00,WeatherDisplay:10.37,2013-06-12 05:00:00,
2013-06-12 00:05:00,80.9,71.9,29.76,SSW,201,8.0,16.0,74,0.00,CLR,SKC,0.00,WeatherDisplay:10.37,2013-06-12 05:05:00,
2013-06-12 00:10:00,80.8,72.1,29.76,South,188,5.0,8.0,75,0.00,CLR,SKC,0.00,WeatherDisplay:10.37,2013-06-12 05:10:00,
2013-06-12 00:15:00,80.7,72.0,29.76,SSW,198,8.0,19.0,75,0.00,CLR,SKC,0.00,WeatherDisplay:10.37,2013-06-12 05:15:00,
2013-06-12 00:25:00,80.5,71.9,29.76,SW,217,5.0,10.0,75,0.00,CLR,SKC,0.00,WeatherDisplay:10.37,2013-06-12 05:25:00,
2013-06-12 00:30:00,80.4,72.2,29.77,South,188,6.0,13.0,76,0.00,CLR,SKC,0.00,WeatherDisplay:10.37,2013-06-12 05:30:00,
2013-06-12 00:35:00,80.3,72.1,29.76,South,176,5.0,10.0,76,0.00,CLR,SKC,0.00,WeatherDisplay:10.37,2013-06-12 05:35:00,
2013-06-12 00:40:00,80.2,72.0,29.76,South,179,2.0,14.0,76,0.00,CLR,SKC,0.00,WeatherDisplay:10.37,2013-06-12 05:40:00,
2013-06-12 00:50:00,80.1,71.9,29.76,South,190,7.0,16.0,76,0.00,CLR,SKC,0.00,WeatherDisplay:10.37,2013-06-12 05:50:00,
2013-06-12 00:55:00,80.0,72.2,29.76,South,172,3.0,12.0,77,0.00,CLR,SKC,0.00,WeatherDisplay:10.37,2013-06-12 05:55:00,
2013-06-12 01:00:00,80.0,72.1,29.76,South,185,8.0,15.0,77,0.00,CLR,SKC,0.00,WeatherDisplay:10.37,2013-06-12 06:00:00,
2013-06-12 01:05:00,79.9,72.1,29.76,SSW,201,7.0,13.0,77,0.00,CLR,SKC,0.00,WeatherDisplay:10.37,2013-06-12 06:05:00,
2013-06-12 01:10:00,79.8,71.9,29.75,South,187,2.0,8.0,77,0.00,CLR,SKC,0.00,WeatherDisplay:10.37,2013-06-12 06:10:00,
2013-06-12 01:15:00,79.6,71.8,29.76,SSW,197,2.0,8.0,77,0.00,CLR,SKC,0.00,WeatherDisplay:10.37,2013-06-12 06:15:00,
2013-06-12 01:20:00,79.5,71.7,29.76,SSW,207,3.0,8.0,77,0.00,CLR,SKC,0.00,WeatherDisplay:10.37,2013-06-12 06:20:00,
2013-06-12 01:25:00,79.5,71.7,29.76,SSW,192,2.0,10.0,77,0.00,CLR,SKC,0.00,WeatherDisplay:10.37,2013-06-12 06:25:00,
2013-06-12 01:30:00,79.5,71.7,29.76,South,185,5.0,13.0,77,0.00,CLR,SKC,0.00,WeatherDisplay:10.37,2013-06-12 06:30:00,
2013-06-12 01:40:00,79.5,71.7,29.76,SSW,196,3.0,15.0,77,0.00,CLR,SKC,0.00,WeatherDisplay:10.37,2013-06-12 06:40:00,
2013-06-12 01:45:00,79.4,72.0,29.76,South,189,5.0,10.0,78,0.00,CLR,SKC,0.00,WeatherDisplay:10.37,2013-06-12 06:45:00,
2013-06-12 01:50:00,79.3,71.9,29.76,SSW,198,1.0,10.0,78,0.00,CLR,SKC,0.00,WeatherDisplay:10.37,2013-06-12 06:50:00,
2013-06-12 01:55:00,79.2,71.8,29.76,SSW,207,2.0,13.0,78,0.00,CLR,SKC,0.00,WeatherDisplay:10.37,2013-06-12 06:55:00,
2013-06-12 02:00:00,79.1,71.7,29.75,SW,220,5.0,15.0,78,0.00,CLR,SKC,0.00,WeatherDisplay:10.37,2013-06-12 07:00:00,
2013-06-12 02:05:00,79.0,71.6,29.75,SSW,207,5.0,13.0,78,0.00,CLR,SKC,0.00,WeatherDisplay:10.37,2013-06-12 07:05:00,
2013-06-12 02:10:00,79.0,71.6,29.75,SSW,193,1.0,8.0,78,0.00,CLR,SKC,0.00,WeatherDisplay:10.37,2013-06-12 07:10:00,
2013-06-12 02:15:00,78.9,71.4,29.75,SSE,162,3.0,12.0,78,0.00,CLR,SKC,0.00,WeatherDisplay:10.37,2013-06-12 07:15:00,
2013-06-12 02:20:00,78.8,71.4,29.75,South,174,2.0,8.0,78,0.00,CLR,SKC,0.00,WeatherDisplay:10.37,2013-06-12 07:20:00,
2013-06-12 02:25:00,78.8,71.4,29.75,SSW,200,5.0,8.0,78,0.00,CLR,SKC,0.00,WeatherDisplay:10.37,2013-06-12 07:25:00,
2013-06-12 02:30:00,78.6,71.2,29.74,South,191,3.0,8.0,78,0.00,CLR,SKC,0.00,WeatherDisplay:10.37,2013-06-12 07:30:00,
2013-06-12 02:35:00,78.6,71.2,29.74,SSW,196,6.0,12.0,78,0.00,CLR,SKC,0.00,WeatherDisplay:10.37,2013-06-12 07:35:00,
2013-06-12 02:40:00,78.6,71.2,29.74,SSW,204,1.0,10.0,78,0.00,CLR,SKC,0.00,WeatherDisplay:10.37,2013-06-12 07:40:00,
2013-06-12 02:45:00,78.5,71.1,29.74,SSE,160,7.0,10.0,78,0.00,CLR,SKC,0.00,WeatherDisplay:10.37,2013-06-12 07:45:00,
2013-06-12 02:50:00,78.4,71.4,29.74,South,177,2.0,8.0,79,0.00,CLR,SKC,0.00,WeatherDisplay:10.37,2013-06-12 07:50:00,
2013-06-12 02:55:00,78.3,71.3,29.74,SSW,192,5.0,10.0,79,0.00,CLR,SKC,0.00,WeatherDisplay:10.37,2013-06-12 07:55:00,
2013-06-12 03:00:00,78.2,71.2,29.74,South,185,3.0,12.0,79,0.00,CLR,SKC,0.00,WeatherDisplay:10.37,2013-06-12 08:00:00,
2013-06-12 03:05:00,78.2,71.1,29.74,SSW,201,3.0,10.0,79,0.00,CLR,SKC,0.00,WeatherDisplay:10.37,2013-06-12 08:05:00,
2013-06-12 03:10:00,78.0,71.3,29.75,South,186,0.0,9.0,80,0.00,CLR,SKC,0.00,WeatherDisplay:10.37,2013-06-12 08:10:00,
2013-06-12 03:15:00,77.9,71.2,29.74,South,177,3.0,8.0,80,0.00,CLR,SKC,0.00,WeatherDisplay:10.37,2013-06-12 08:15:00,
2013-06-12 03:20:00,77.9,71.2,29.74,South,191,8.0,18.0,80,0.00,CLR,SKC,0.00,WeatherDisplay:10.37,2013-06-12 08:20:00,
2013-06-12 03:25:00,77.8,71.2,29.74,South,181,1.0,17.0,80,0.00,CLR,SKC,0.00,WeatherDisplay:10.37,2013-06-12 08:25:00,
2013-06-12 03:30:00,77.7,71.1,29.74,South,185,1.0,8.0,80,0.00,CLR,SKC,0.00,WeatherDisplay:10.37,2013-06-12 08:30:00,
2013-06-12 03:35:00,77.7,71.4,29.74,SSW,209,1.0,10.0,81,0.00,CLR,SKC,0.00,WeatherDisplay:10.37,2013-06-12 08:35:00,
2013-06-12 03:40:00,77.7,71.1,29.74,WSW,238,3.0,10.0,80,0.00,CLR,SKC,0.00,WeatherDisplay:10.37,2013-06-12 08:40:00,
2013-06-12 03:50:00,77.8,71.2,29.73,South,184,7.0,16.0,80,0.00,CLR,SKC,0.00,WeatherDisplay:10.37,2013-06-12 08:50:00,
2013-06-12 03:55:00,77.8,71.2,29.73,SSW,192,6.0,12.0,80,0.00,CLR,SKC,0.00,WeatherDisplay:10.37,2013-06-12 08:55:00,
2013-06-12 04:00:00,77.8,71.1,29.73,SSW,198,6.0,15.0,80,0.00,CLR,SKC,0.00,WeatherDisplay:10.37,2013-06-12 09:00:00,
2013-06-12 04:05:00,77.7,71.1,29.74,South,183,5.0,18.0,80,0.00,CLR,SKC,0.00,WeatherDisplay:10.37,2013-06-12 09:05:00,
2013-06-12 04:10:00,77.7,71.1,29.74,SSW,204,5.0,13.0,80,0.00,CLR,SKC,0.00,WeatherDisplay:10.37,2013-06-12 09:10:00,
2013-06-12 04:15:00,77.7,71.0,29.74,SSW,204,6.0,15.0,80,0.00,CLR,SKC,0.00,WeatherDisplay:10.37,2013-06-12 09:15:00,
2013-06-12 04:20:00,77.6,70.9,29.73,SSW,203,6.0,13.0,80,0.00,CLR,SKC,0.00,WeatherDisplay:10.37,2013-06-12 09:20:00,
2013-06-12 04:25:00,77.5,70.8,29.73,SSW,201,3.0,15.0,80,0.00,CLR,SKC,0.00,WeatherDisplay:10.37,2013-06-12 09:25:00,
2013-06-12 04:30:00,77.3,70.7,29.73,SW,215,6.0,15.0,80,0.00,CLR,SKC,0.00,WeatherDisplay:10.37,2013-06-12 09:30:00,
2013-06-12 04:35:00,77.2,70.9,29.73,SSW,202,6.0,10.0,81,0.00,CLR,SKC,0.00,WeatherDisplay:10.37,2013-06-12 09:35:00,
2013-06-12 04:40:00,77.1,70.8,29.74,SSW,199,3.0,15.0,81,0.00,CLR,SKC,0.00,WeatherDisplay:10.37,2013-06-12 09:40:00,
2013-06-12 04:45:00,77.0,70.7,29.74,SW,228,5.0,15.0,81,0.00,CLR,SKC,0.00,WeatherDisplay:10.37,2013-06-12 09:45:00,
2013-06-12 04:50:00,77.0,70.4,29.74,SW,221,5.0,18.0,80,0.00,CLR,SKC,0.00,WeatherDisplay:10.37,2013-06-12 09:50:00,
2013-06-12 04:55:00,77.0,70.4,29.74,SSW,202,7.0,21.0,80,0.00,CLR,SKC,0.00,WeatherDisplay:10.37,2013-06-12 09:55:00,
2013-06-12 05:00:00,77.0,70.4,29.74,SSW,207,7.0,13.0,80,0.00,CLR,SKC,0.00,WeatherDisplay:10.37,2013-06-12 10:00:00,
2013-06-12 05:05:00,77.1,70.5,29.74,SSW,201,3.0,8.0,80,0.00,CLR,SKC,0.00,WeatherDisplay:10.37,2013-06-12 10:05:00,
2013-06-12 05:10:00,77.1,70.5,29.74,SSW,193,7.0,15.0,80,0.00,CLR,SKC,0.00,WeatherDisplay:10.37,2013-06-12 10:10:00,
2013-06-12 05:15:00,77.2,70.5,29.74,SW,215,5.0,13.0,80,0.00,CLR,SKC,0.00,WeatherDisplay:10.37,2013-06-12 10:15:00,
2013-06-12 05:20:00,77.2,70.6,29.74,SSW,197,8.0,16.0,80,0.00,CLR,SKC,0.00,WeatherDisplay:10.37,2013-06-12 10:20:00,
2013-06-12 05:25:00,77.2,70.2,29.74,South,185,3.0,13.0,79,0.00,CLR,SKC,0.00,WeatherDisplay:10.37,2013-06-12 10:25:00,
2013-06-12 05:30:00,77.1,70.4,29.74,SSW,192,5.0,15.0,80,0.00,CLR,SKC,0.00,WeatherDisplay:10.37,2013-06-12 10:30:00,
2013-06-12 05:40:00,77.1,70.1,29.74,SSW,208,7.0,15.0,79,0.00,CLR,SKC,0.00,WeatherDisplay:10.37,2013-06-12 10:40:00,
2013-06-12 05:45:00,77.1,70.1,29.74,SW,218,8.0,13.0,79,0.00,CLR,SKC,0.00,WeatherDisplay:10.37,2013-06-12 10:45:00,
2013-06-12 05:50:00,77.1,70.1,29.74,SSW,213,8.0,16.0,79,0.00,CLR,SKC,0.00,WeatherDisplay:10.37,2013-06-12 10:50:00,
2013-06-12 05:55:00,77.1,70.1,29.74,SSW,204,8.0,21.0,79,0.00,CLR,SKC,0.00,WeatherDisplay:10.37,2013-06-12 10:55:00,
2013-06-12 06:00:00,77.1,70.1,29.75,SSW,208,8.0,14.0,79,0.00,CLR,SKC,0.00,WeatherDisplay:10.37,2013-06-12 11:00:00,
2013-06-12 06:05:00,77.0,70.0,29.75,SSW,203,5.0,12.0,79,0.00,CLR,SKC,0.00,WeatherDisplay:10.37,2013-06-12 11:05:00,
2013-06-12 06:10:00,77.0,70.0,29.75,SSW,206,1.0,13.0,79,0.00,CLR,SKC,0.00,WeatherDisplay:10.37,2013-06-12 11:10:00,
2013-06-12 06:15:00,76.9,69.9,29.74,SW,235,7.0,18.0,79,0.00,CLR,SKC,0.00,WeatherDisplay:10.37,2013-06-12 11:15:00,
2013-06-12 06:20:00,77.0,70.0,29.74,SSW,213,2.0,13.0,79,0.00,CLR,SKC,0.00,WeatherDisplay:10.37,2013-06-12 11:20:00,
2013-06-12 06:25:00,77.0,70.0,29.74,SSW,209,6.0,13.0,79,0.00,CLR,SKC,0.00,WeatherDisplay:10.37,2013-06-12 11:25:00,
2013-06-12 06:35:00,77.2,70.2,29.74,SW,224,5.0,20.0,79,0.00,CLR,SKC,0.00,WeatherDisplay:10.37,2013-06-12 11:35:00,
2013-06-12 06:40:00,77.4,70.0,29.74,WSW,240,7.0,13.0,78,0.00,CLR,SKC,0.00,WeatherDisplay:10.37,2013-06-12 11:40:00,
2013-06-12 06:45:00,77.6,70.2,29.73,SSW,205,8.0,18.0,78,0.00,CLR,SKC,0.00,WeatherDisplay:10.37,2013-06-12 11:45:00,
2013-06-12 06:50:00,77.9,70.1,29.73,SSW,204,7.0,21.0,77,0.00,CLR,SKC,0.00,WeatherDisplay:10.37,2013-06-12 11:50:00,
2013-06-12 06:55:00,78.1,70.3,29.73,South,182,14.0,34.0,77,0.00,CLR,SKC,0.00,WeatherDisplay:10.37,2013-06-12 11:55:00,
2013-06-12 07:00:00,78.2,70.4,29.73,SSW,204,15.0,24.0,77,0.00,CLR,SKC,0.00,WeatherDisplay:10.37,2013-06-12 12:00:00,
2013-06-12 07:05:00,78.3,70.5,29.73,SSW,197,7.0,15.0,77,0.00,CLR,SKC,0.00,WeatherDisplay:10.37,2013-06-12 12:05:00,
2013-06-12 07:10:00,78.3,70.1,29.73,South,187,9.0,20.0,76,0.00,CLR,SKC,0.00,WeatherDisplay:10.37,2013-06-12 12:10:00,
2013-06-12 07:15:00,78.4,70.6,29.73,South,180,5.0,16.0,77,0.00,CLR,SKC,0.00,WeatherDisplay:10.37,2013-06-12 12:15:00,
2013-06-12 07:20:00,78.5,70.7,29.72,SSW,196,3.0,24.0,77,0.00,CLR,SKC,0.00,WeatherDisplay:10.37,2013-06-12 12:20:00,
2013-06-12 07:25:00,78.7,70.5,29.72,SW,215,10.0,24.0,76,0.00,CLR,SKC,0.00,WeatherDisplay:10.37,2013-06-12 12:25:00,
2013-06-12 07:30:00,78.8,70.6,29.72,SSW,210,8.0,18.0,76,0.00,CLR,SKC,0.00,WeatherDisplay:10.37,2013-06-12 12:30:00,
2013-06-12 07:40:00,79.0,70.8,29.72,SW,230,7.0,18.0,76,0.00,CLR,SKC,0.00,WeatherDisplay:10.37,2013-06-12 12:40:00,
2013-06-12 07:45:00,79.1,70.9,29.72,SSW,196,6.0,16.0,76,0.00,CLR,SKC,0.00,WeatherDisplay:10.37,2013-06-12 12:45:00,
2013-06-12 07:50:00,79.4,70.7,29.71,South,184,12.0,26.0,75,0.00,CLR,SKC,0.00,WeatherDisplay:10.37,2013-06-12 12:50:00,
2013-06-12 08:00:00,80.0,70.9,29.71,SSW,196,8.0,24.0,74,0.00,CLR,SKC,0.00,WeatherDisplay:10.37,2013-06-12 13:00:00,
2013-06-12 08:05:00,80.3,71.2,29.71,South,181,13.0,20.0,74,0.00,CLR,SKC,0.00,WeatherDisplay:10.37,2013-06-12 13:05:00,
2013-06-12 08:15:00,80.9,71.4,29.71,SW,215,10.0,18.0,73,0.00,CLR,SKC,0.00,WeatherDisplay:10.37,2013-06-12 13:15:00,
2013-06-12 08:20:00,81.1,71.7,29.71,SSW,210,6.0,19.0,73,0.00,CLR,SKC,0.00,WeatherDisplay:10.37,2013-06-12 13:20:00,
2013-06-12 08:25:00,81.4,71.5,29.71,SW,227,8.0,18.0,72,0.00,CLR,SKC,0.00,WeatherDisplay:10.37,2013-06-12 13:25:00,
2013-06-12 08:30:00,81.7,71.8,29.70,SW,232,6.0,13.0,72,0.00,CLR,SKC,0.00,WeatherDisplay:10.37,2013-06-12 13:30:00,
2013-06-12 08:40:00,82.2,71.9,29.70,SW,222,6.0,16.0,71,0.00,CLR,SKC,0.00,WeatherDisplay:10.37,2013-06-12 13:40:00,
2013-06-12 08:45:00,82.4,71.7,29.71,SW,235,6.0,24.0,70,0.00,CLR,SKC,0.00,WeatherDisplay:10.37,2013-06-12 13:45:00,
2013-06-12 08:50:00,82.7,71.9,29.71,SSW,213,7.0,24.0,70,0.00,CLR,SKC,0.00,WeatherDisplay:10.37,2013-06-12 13:50:00,
2013-06-12 08:55:00,83.0,71.8,29.71,SW,214,6.0,18.0,69,0.00,CLR,SKC,0.00,WeatherDisplay:10.37,2013-06-12 13:55:00,
2013-06-12 09:00:00,83.2,72.0,29.71,SW,222,7.0,22.0,69,0.00,CLR,SKC,0.00,WeatherDisplay:10.37,2013-06-12 14:00:00,
2013-06-12 09:05:00,83.6,72.3,29.71,South,170,7.0,16.0,69,0.00,CLR,SKC,0.00,WeatherDisplay:10.37,2013-06-12 14:05:00,
2013-06-12 09:10:00,83.8,72.1,29.70,SW,215,12.0,22.0,68,0.00,CLR,SKC,0.00,WeatherDisplay:10.37,2013-06-12 14:10:00,
2013-06-12 09:15:00,84.1,72.8,29.70,WSW,250,3.0,15.0,69,0.00,CLR,SKC,0.00,WeatherDisplay:10.37,2013-06-12 14:15:00,
2013-06-12 09:20:00,84.4,72.7,29.70,SW,236,2.0,18.0,68,0.00,CLR,SKC,0.00,WeatherDisplay:10.37,2013-06-12 14:20:00,
2013-06-12 09:25:00,84.6,72.0,29.70,SW,233,10.0,24.0,66,0.00,CLR,SKC,0.00,WeatherDisplay:10.37,2013-06-12 14:25:00,
2013-06-12 09:35:00,84.7,72.6,29.70,WSW,241,10.0,22.0,67,0.00,CLR,SKC,0.00,WeatherDisplay:10.37,2013-06-12 14:35:00,
2013-06-12 09:40:00,85.0,72.3,29.70,WSW,249,6.0,15.0,66,0.00,CLR,SKC,0.00,WeatherDisplay:10.37,2013-06-12 14:40:00,
2013-06-12 09:45:00,85.4,72.7,29.70,SW,226,6.0,16.0,66,0.00,CLR,SKC,0.00,WeatherDisplay:10.37,2013-06-12 14:45:00,
2013-06-12 09:50:00,85.5,72.4,29.69,WSW,243,6.0,22.0,65,0.00,CLR,SKC,0.00,WeatherDisplay:10.37,2013-06-12 14:50:00,
2013-06-12 09:55:00,85.5,72.4,29.69,SW,215,8.0,26.0,65,0.00,CLR,SKC,0.00,WeatherDisplay:10.37,2013-06-12 14:55:00,
2013-06-12 10:00:00,85.7,72.6,29.70,SE,134,12.0,24.0,65,0.00,CLR,SKC,0.00,WeatherDisplay:10.37,2013-06-12 15:00:00,
2013-06-12 10:05:00,85.9,72.8,29.70,SSW,208,10.0,20.0,65,0.00,CLR,SKC,0.00,WeatherDisplay:10.37,2013-06-12 15:05:00,
2013-06-12 10:10:00,86.0,72.9,29.70,SW,231,9.0,20.0,65,0.00,CLR,SKC,0.00,WeatherDisplay:10.37,2013-06-12 15:10:00,
2013-06-12 10:15:00,86.3,73.2,29.69,WSW,238,5.0,13.0,65,0.00,CLR,SKC,0.00,WeatherDisplay:10.37,2013-06-12 15:15:00,
2013-06-12 10:20:00,86.7,73.1,29.69,SSW,193,7.0,13.0,64,0.00,CLR,SKC,0.00,WeatherDisplay:10.37,2013-06-12 15:20:00,
2013-06-12 10:25:00,87.0,73.3,29.69,SSW,213,3.0,18.0,64,0.00,CLR,SKC,0.00,WeatherDisplay:10.37,2013-06-12 15:25:00,
2013-06-12 10:30:00,87.2,72.6,29.69,WSW,255,7.0,26.0,62,0.00,CLR,SKC,0.00,WeatherDisplay:10.37,2013-06-12 15:30:00,
2013-06-12 10:35:00,87.5,73.3,29.69,West,279,5.0,12.0,63,0.00,CLR,SKC,0.00,WeatherDisplay:10.37,2013-06-12 15:35:00,
2013-06-12 10:40:00,87.8,73.1,29.69,West,269,3.0,11.0,62,0.00,CLR,SKC,0.00,WeatherDisplay:10.37,2013-06-12 15:40:00,
2013-06-12 10:45:00,88.0,71.9,29.69,West,264,9.0,22.0,59,0.00,CLR,SKC,0.00,WeatherDisplay:10.37,2013-06-12 15:45:00,
2013-06-12 10:55:00,88.2,72.0,29.69,West,272,2.0,26.0,59,0.00,CLR,SKC,0.00,WeatherDisplay:10.37,2013-06-12 15:55:00,
2013-06-12 11:00:00,88.3,71.2,29.70,WSW,255,5.0,15.0,57,0.00,CLR,SKC,0.00,WeatherDisplay:10.37,2013-06-12 16:00:00,
2013-06-12 11:05:00,88.5,72.3,29.70,WSW,257,0.0,3.0,59,0.00,CLR,SKC,0.00,WeatherDisplay:10.37,2013-06-12 16:05:00,
2013-06-12 11:10:00,88.9,71.7,29.70,WSW,245,7.0,19.0,57,0.00,CLR,SKC,0.00,WeatherDisplay:10.37,2013-06-12 16:10:00,
2013-06-12 11:15:00,88.8,72.1,29.70,WSW,254,5.0,21.0,58,0.00,CLR,SKC,0.00,WeatherDisplay:10.37,2013-06-12 16:15:00,
2013-06-12 11:20:00,88.9,72.2,29.70,WSW,256,5.0,10.0,58,0.00,CLR,SKC,0.00,WeatherDisplay:10.37,2013-06-12 16:20:00,
2013-06-12 11:25:00,89.1,72.4,29.70,WSW,250,6.0,16.0,58,0.00,CLR,SKC,0.00,WeatherDisplay:10.37,2013-06-12 16:25:00,
2013-06-12 11:30:00,89.2,73.0,29.70,WSW,257,0.0,13.0,59,0.00,CLR,SKC,0.00,WeatherDisplay:10.37,2013-06-12 16:30:00,
2013-06-12 11:40:00,89.5,73.3,29.70,SW,217,1.0,18.0,59,0.00,CLR,SKC,0.00,WeatherDisplay:10.37,2013-06-12 16:40:00,
2013-06-12 11:45:00,89.6,72.4,29.70,WSW,256,5.0,18.0,57,0.00,CLR,SKC,0.00,WeatherDisplay:10.37,2013-06-12 16:45:00,
2013-06-12 11:50:00,89.7,72.9,29.70,West,264,3.0,12.0,58,0.00,CLR,SKC,0.00,WeatherDisplay:10.37,2013-06-12 16:50:00,
2013-06-12 11:55:00,89.8,73.5,29.70,West,270,0.0,12.0,59,0.00,CLR,SKC,0.00,WeatherDisplay:10.37,2013-06-12 16:55:00,
2013-06-12 12:00:00,90.3,73.0,29.70,WSW,256,7.0,16.0,57,0.00,CLR,SKC,0.00,WeatherDisplay:10.37,2013-06-12 17:00:00,
2013-06-12 12:05:00,90.4,72.1,29.71,WSW,254,5.0,13.0,55,0.00,CLR,SKC,0.00,WeatherDisplay:10.37,2013-06-12 17:05:00,
2013-06-12 12:10:00,90.5,72.1,29.71,West,277,3.0,13.0,55,0.00,CLR,SKC,0.00,WeatherDisplay:10.37,2013-06-12 17:10:00,
2013-06-12 12:15:00,90.9,72.5,29.71,West,268,3.0,13.0,55,0.00,CLR,SKC,0.00,WeatherDisplay:10.37,2013-06-12 17:15:00,
2013-06-12 12:25:00,91.0,71.5,29.70,WSW,247,5.0,14.0,53,0.00,CLR,SKC,0.00,WeatherDisplay:10.37,2013-06-12 17:25:00,
2013-06-12 12:30:00,90.9,71.4,29.70,WSW,243,7.0,15.0,53,0.00,CLR,SKC,0.00,WeatherDisplay:10.37,2013-06-12 17:30:00,
2013-06-12 12:35:00,91.0,71.5,29.70,WSW,255,6.0,8.0,53,0.00,CLR,SKC,0.00,WeatherDisplay:10.37,2013-06-12 17:35:00,
2013-06-12 12:40:00,91.1,72.1,29.70,West,277,5.0,13.0,54,0.00,CLR,SKC,0.00,WeatherDisplay:10.37,2013-06-12 17:40:00,
2013-06-12 12:45:00,91.0,71.5,29.70,West,260,6.0,13.0,53,0.00,CLR,SKC,0.00,WeatherDisplay:10.37,2013-06-12 17:45:00,
2013-06-12 12:50:00,91.0,72.1,29.70,WSW,246,8.0,13.0,54,0.00,CLR,SKC,0.00,WeatherDisplay:10.37,2013-06-12 17:50:00,
2013-06-12 12:55:00,91.2,72.2,29.70,WSW,252,3.0,21.0,54,0.00,CLR,SKC,0.00,WeatherDisplay:10.37,2013-06-12 17:55:00,
2013-06-12 13:05:00,91.8,72.2,29.71,WSW,253,3.0,8.0,53,0.00,CLR,SKC,0.00,WeatherDisplay:10.37,2013-06-12 18:05:00,
2013-06-12 13:10:00,91.5,72.5,29.71,WSW,250,3.0,14.0,54,0.00,CLR,SKC,0.00,WeatherDisplay:10.37,2013-06-12 18:10:00,
2013-06-12 13:20:00,91.6,72.6,29.71,WSW,258,6.0,8.0,54,0.00,CLR,SKC,0.00,WeatherDisplay:10.37,2013-06-12 18:20:00,
2013-06-12 13:30:00,91.5,72.5,29.71,West,259,6.0,8.0,54,0.00,CLR,SKC,0.00,WeatherDisplay:10.37,2013-06-12 18:30:00,
2013-06-12 13:35:00,91.9,72.9,29.70,West,259,2.0,7.0,54,0.00,CLR,SKC,0.00,WeatherDisplay:10.37,2013-06-12 18:35:00,
2013-06-12 13:40:00,92.0,72.4,29.70,West,269,5.0,16.0,53,0.00,CLR,SKC,0.00,WeatherDisplay:10.37,2013-06-12 18:40:00,
2013-06-12 13:45:00,92.2,72.6,29.70,WSW,257,5.0,16.0,53,0.00,CLR,SKC,0.00,WeatherDisplay:10.37,2013-06-12 18:45:00,
2013-06-12 13:50:00,92.6,72.9,29.71,WSW,254,6.0,16.0,53,0.00,CLR,SKC,0.00,WeatherDisplay:10.37,2013-06-12 18:50:00,
2013-06-12 13:55:00,92.5,72.3,29.70,WSW,252,3.0,16.0,52,0.00,CLR,SKC,0.00,WeatherDisplay:10.37,2013-06-12 18:55:00,
2013-06-12 14:00:00,92.8,72.6,29.71,West,273,5.0,7.0,52,0.00,CLR,SKC,0.00,WeatherDisplay:10.37,2013-06-12 19:00:00,
2013-06-12 14:05:00,92.9,72.7,29.71,West,278,2.0,7.0,52,0.00,CLR,SKC,0.00,WeatherDisplay:10.37,2013-06-12 19:05:00,
2013-06-12 14:10:00,93.0,71.6,29.71,West,265,6.0,12.0,50,0.00,CLR,SKC,0.00,WeatherDisplay:10.37,2013-06-12 19:10:00,
2013-06-12 14:15:00,93.0,71.6,29.71,WSW,253,5.0,12.0,50,0.00,CLR,SKC,0.00,WeatherDisplay:10.37,2013-06-12 19:15:00,
2013-06-12 14:20:00,93.3,72.4,29.71,WSW,256,2.0,12.0,51,0.00,CLR,SKC,0.00,WeatherDisplay:10.37,2013-06-12 19:20:00,
2013-06-12 14:25:00,93.8,72.3,29.71,West,261,1.0,5.0,50,0.00,CLR,SKC,0.00,WeatherDisplay:10.37,2013-06-12 19:25:00,
2013-06-12 14:30:00,93.9,73.1,29.71,West,269,5.0,7.0,51,0.00,CLR,SKC,0.00,WeatherDisplay:10.37,2013-06-12 19:30:00,
2013-06-12 14:35:00,93.7,71.6,29.71,West,270,3.0,7.0,49,0.00,CLR,SKC,0.00,WeatherDisplay:10.37,2013-06-12 19:35:00,
2013-06-12 14:40:00,93.8,72.9,29.71,WSW,258,0.0,3.0,51,0.00,CLR,SKC,0.00,WeatherDisplay:10.37,2013-06-12 19:40:00,
2013-06-12 14:45:00,94.2,72.7,29.71,WSW,243,3.0,15.0,50,0.00,CLR,SKC,0.00,WeatherDisplay:10.37,2013-06-12 19:45:00,
2013-06-12 14:50:00,94.3,71.6,29.71,WSW,254,5.0,8.0,48,0.00,CLR,SKC,0.00,WeatherDisplay:10.37,2013-06-12 19:50:00,
2013-06-12 15:00:00,94.2,71.5,29.71,WSW,253,6.0,8.0,48,0.00,CLR,SKC,0.00,WeatherDisplay:10.37,2013-06-12 20:00:00,
2013-06-12 15:05:00,93.9,71.2,29.71,WSW,252,6.0,10.0,48,0.00,CLR,SKC,0.00,WeatherDisplay:10.37,2013-06-12 20:05:00,
2013-06-12 15:10:00,94.1,73.2,29.71,WSW,252,0.0,7.0,51,0.00,CLR,SKC,0.00,WeatherDisplay:10.37,2013-06-12 20:10:00,
2013-06-12 15:15:00,94.3,71.6,29.71,West,270,6.0,13.0,48,0.00,CLR,SKC,0.00,WeatherDisplay:10.37,2013-06-12 20:15:00,
2013-06-12 15:20:00,93.9,71.9,29.71,West,265,3.0,13.0,49,0.00,CLR,SKC,0.00,WeatherDisplay:10.37,2013-06-12 20:20:00,
2013-06-12 15:25:00,94.1,72.7,29.71,WSW,256,2.0,8.0,50,0.00,CLR,SKC,0.00,WeatherDisplay:10.37,2013-06-12 20:25:00,
2013-06-12 15:30:00,94.3,71.6,29.71,West,265,2.0,10.0,48,0.00,CLR,SKC,0.00,WeatherDisplay:10.37,2013-06-12 20:30:00,
2013-06-12 15:35:00,94.5,71.8,29.71,West,259,2.0,5.0,48,0.00,CLR,SKC,0.00,WeatherDisplay:10.37,2013-06-12 20:35:00,
2013-06-12 15:40:00,94.5,71.7,29.71,West,266,2.0,7.0,48,0.00,CLR,SKC,0.00,WeatherDisplay:10.37,2013-06-12 20:40:00,
2013-06-12 15:45:00,94.4,71.7,29.71,West,269,3.0,6.0,48,0.00,CLR,SKC,0.00,WeatherDisplay:10.37,2013-06-12 20:45:00,
2013-06-12 15:50:00,94.5,73.0,29.71,West,268,3.0,15.0,50,0.00,CLR,SKC,0.00,WeatherDisplay:10.37,2013-06-12 20:50:00,
2013-06-12 15:55:00,94.8,73.3,29.71,West,268,1.0,10.0,50,0.00,CLR,SKC,0.00,WeatherDisplay:10.37,2013-06-12 20:55:00,
2013-06-12 16:00:00,94.7,73.2,29.71,WSW,251,1.0,9.0,50,0.00,CLR,SKC,0.00,WeatherDisplay:10.37,2013-06-12 21:00:00,
2013-06-12 16:05:00,94.9,73.4,29.71,WSW,253,2.0,8.0,50,0.00,CLR,SKC,0.00,WeatherDisplay:10.37,2013-06-12 21:05:00,
2013-06-12 16:10:00,95.1,73.0,29.71,WSW,256,1.0,5.0,49,0.00,CLR,SKC,0.00,WeatherDisplay:10.37,2013-06-12 21:10:00,
2013-06-12 16:15:00,95.3,73.1,29.71,WSW,256,1.0,7.0,49,0.00,CLR,SKC,0.00,WeatherDisplay:10.37,2013-06-12 21:15:00,
2013-06-12 16:20:00,95.2,73.1,29.71,West,271,2.0,7.0,49,0.00,CLR,SKC,0.00,WeatherDisplay:10.37,2013-06-12 21:20:00,
2013-06-12 16:25:00,95.5,73.3,29.71,West,269,2.0,5.0,49,0.00,CLR,SKC,0.00,WeatherDisplay:10.37,2013-06-12 21:25:00,
2013-06-12 16:30:00,95.2,73.0,29.71,WNW,285,2.0,7.0,49,0.00,CLR,SKC,0.00,WeatherDisplay:10.37,2013-06-12 21:30:00,
2013-06-12 16:40:00,95.1,71.7,29.72,West,268,3.0,5.0,47,0.00,CLR,SKC,0.00,WeatherDisplay:10.37,2013-06-12 21:40:00,
2013-06-12 16:50:00,95.4,72.0,29.72,West,281,1.0,5.0,47,0.00,CLR,SKC,0.00,WeatherDisplay:10.37,2013-06-12 21:50:00,
2013-06-12 16:55:00,95.2,71.8,29.72,West,271,2.0,5.0,47,0.00,CLR,SKC,0.00,WeatherDisplay:10.37,2013-06-12 21:55:00,
2013-06-12 17:00:00,95.0,71.0,29.72,West,278,2.0,5.0,46,0.00,CLR,SKC,0.00,WeatherDisplay:10.37,2013-06-12 22:00:00,
2013-06-12 17:05:00,95.1,71.7,29.72,West,279,2.0,5.0,47,0.00,CLR,SKC,0.00,WeatherDisplay:10.37,2013-06-12 22:05:00,
2013-06-12 17:10:00,95.4,73.2,29.72,West,266,0.0,3.0,49,0.00,CLR,SKC,0.00,WeatherDisplay:10.37,2013-06-12 22:10:00,
2013-06-12 17:15:00,95.6,72.1,29.73,WSW,253,1.0,6.0,47,0.00,CLR,SKC,0.00,WeatherDisplay:10.37,2013-06-12 22:15:00,
2013-06-12 17:20:00,95.2,71.2,29.72,West,281,1.0,5.0,46,0.00,CLR,SKC,0.00,WeatherDisplay:10.37,2013-06-12 22:20:00,
2013-06-12 17:25:00,95.1,71.1,29.73,WNW,290,2.0,3.0,46,0.00,CLR,SKC,0.00,WeatherDisplay:10.37,2013-06-12 22:25:00,
2013-06-12 17:30:00,94.9,71.5,29.73,West,266,1.0,3.0,47,0.00,CLR,SKC,0.00,WeatherDisplay:10.37,2013-06-12 22:30:00,
2013-06-12 17:35:00,94.7,71.3,29.73,WSW,255,1.0,3.0,47,0.00,CLR,SKC,0.00,WeatherDisplay:10.37,2013-06-12 22:35:00,
2013-06-12 17:40:00,94.5,71.1,29.73,West,259,0.0,2.0,47,0.00,CLR,SKC,0.00,WeatherDisplay:10.37,2013-06-12 22:40:00,
2013-06-12 17:45:00,94.0,71.3,29.73,WSW,255,0.0,5.0,48,0.00,CLR,SKC,0.00,WeatherDisplay:10.37,2013-06-12 22:45:00,
2013-06-12 17:50:00,93.7,71.0,29.73,WSW,257,1.0,3.0,48,0.00,CLR,SKC,0.00,WeatherDisplay:10.37,2013-06-12 22:50:00,
2013-06-12 17:55:00,93.4,71.4,29.73,WNW,287,0.0,5.0,49,0.00,CLR,SKC,0.00,WeatherDisplay:10.37,2013-06-12 22:55:00,
2013-06-12 18:00:00,93.3,72.5,29.72,West,280,0.0,2.0,51,0.00,CLR,SKC,0.00,WeatherDisplay:10.37,2013-06-12 23:00:00,
2013-06-12 18:05:00,93.2,71.8,29.73,West,264,1.0,3.0,50,0.00,CLR,SKC,0.00,WeatherDisplay:10.37,2013-06-12 23:05:00,
2013-06-12 18:10:00,93.0,71.6,29.72,West,268,0.0,7.0,50,0.00,CLR,SKC,0.00,WeatherDisplay:10.37,2013-06-12 23:10:00,
2013-06-12 18:15:00,92.8,71.4,29.73,West,268,0.0,7.0,50,0.00,CLR,SKC,0.00,WeatherDisplay:10.37,2013-06-12 23:15:00,
2013-06-12 18:20:00,92.7,72.5,29.73,West,266,0.0,2.0,52,0.00,CLR,SKC,0.00,WeatherDisplay:10.37,2013-06-12 23:20:00,
2013-06-12 18:25:00,92.7,72.5,29.73,West,265,0.0,2.0,52,0.00,CLR,SKC,0.00,WeatherDisplay:10.37,2013-06-12 23:25:00,
2013-06-12 18:30:00,92.7,72.5,29.72,West,262,1.0,3.0,52,0.00,CLR,SKC,0.00,WeatherDisplay:10.37,2013-06-12 23:30:00,
2013-06-12 18:35:00,92.6,72.4,29.73,WSW,250,2.0,5.0,52,0.00,CLR,SKC,0.00,WeatherDisplay:10.37,2013-06-12 23:35:00,
2013-06-12 18:40:00,92.3,72.7,29.73,WSW,249,1.0,3.0,53,0.00,CLR,SKC,0.00,WeatherDisplay:10.37,2013-06-12 23:40:00,
2013-06-12 18:45:00,92.0,72.4,29.73,WSW,258,0.0,2.0,53,0.00,CLR,SKC,0.00,WeatherDisplay:10.37,2013-06-12 23:45:00,
2013-06-12 18:50:00,91.9,72.3,29.73,SW,234,0.0,2.0,53,0.00,CLR,SKC,0.00,WeatherDisplay:10.37,2013-06-12 23:50:00,
2013-06-12 18:55:00,91.7,72.7,29.73,SW,227,0.0,3.0,54,0.00,CLR,SKC,0.00,WeatherDisplay:10.37,2013-06-12 23:55:00,
2013-06-12 19:00:00,91.5,72.5,29.73,WSW,249,0.0,2.0,54,0.00,CLR,SKC,0.00,WeatherDisplay:10.37,2013-06-13 00:00:00,
2013-06-12 19:05:00,91.4,72.4,29.73,West,259,0.0,3.0,54,0.00,CLR,SKC,0.00,WeatherDisplay:10.37,2013-06-13 00:05:00,
2013-06-12 19:10:00,91.2,72.2,29.73,West,262,0.0,2.0,54,0.00,CLR,SKC,0.00,WeatherDisplay:10.37,2013-06-13 00:10:00,
2013-06-12 19:15:00,91.1,72.7,29.73,WSW,249,1.0,2.0,55,0.00,CLR,SKC,0.00,WeatherDisplay:10.37,2013-06-13 00:15:00,
2013-06-12 19:20:00,90.9,72.5,29.73,WSW,253,1.0,3.0,55,0.00,CLR,SKC,0.00,WeatherDisplay:10.37,2013-06-13 00:20:00,
2013-06-12 19:25:00,90.8,72.4,29.73,WSW,258,1.0,2.0,55,0.00,CLR,SKC,0.00,WeatherDisplay:10.37,2013-06-13 00:25:00,
2013-06-12 19:30:00,90.7,72.9,29.74,WSW,258,0.0,2.0,56,0.00,CLR,SKC,0.00,WeatherDisplay:10.37,2013-06-13 00:30:00,
2013-06-12 19:35:00,90.5,72.7,29.74,West,262,0.0,2.0,56,0.00,CLR,SKC,0.00,WeatherDisplay:10.37,2013-06-13 00:35:00,
2013-06-12 19:40:00,90.3,72.5,29.74,WSW,255,0.0,2.0,56,0.00,CLR,SKC,0.00,WeatherDisplay:10.37,2013-06-13 00:40:00,
2013-06-12 19:45:00,90.1,72.8,29.74,WSW,248,0.0,2.0,57,0.00,CLR,SKC,0.00,WeatherDisplay:10.37,2013-06-13 00:45:00,
2013-06-12 19:50:00,89.9,73.2,29.74,WSW,247,0.0,2.0,58,0.00,CLR,SKC,0.00,WeatherDisplay:10.37,2013-06-13 00:50:00,
2013-06-12 19:55:00,89.7,72.9,29.74,West,260,0.0,2.0,58,0.00,CLR,SKC,0.00,WeatherDisplay:10.37,2013-06-13 00:55:00,
2013-06-12 20:00:00,89.5,72.8,29.74,West,261,0.0,2.0,58,0.00,CLR,SKC,0.00,WeatherDisplay:10.37,2013-06-13 01:00:00,
2013-06-12 20:05:00,89.3,73.1,29.75,West,260,0.0,0.0,59,0.00,CLR,SKC,0.00,WeatherDisplay:10.37,2013-06-13 01:05:00,
2013-06-12 20:10:00,89.0,73.3,29.75,West,260,0.0,0.0,60,0.00,CLR,SKC,0.00,WeatherDisplay:10.37,2013-06-13 01:10:00,
2013-06-12 20:15:00,88.6,73.4,29.75,West,260,0.0,0.0,61,0.00,CLR,SKC,0.00,WeatherDisplay:10.37,2013-06-13 01:15:00,
2013-06-12 20:20:00,88.3,73.1,29.75,West,260,0.0,0.0,61,0.00,CLR,SKC,0.00,WeatherDisplay:10.37,2013-06-13 01:20:00,
2013-06-12 20:25:00,88.0,73.4,29.75,West,260,0.0,0.0,62,0.00,CLR,SKC,0.00,WeatherDisplay:10.37,2013-06-13 01:25:00,
2013-06-12 20:30:00,87.8,73.2,29.75,West,260,0.0,0.0,62,0.00,CLR,SKC,0.00,WeatherDisplay:10.37,2013-06-13 01:30:00,
2013-06-12 20:35:00,87.6,73.0,29.75,West,260,0.0,0.0,62,0.00,CLR,SKC,0.00,WeatherDisplay:10.37,2013-06-13 01:35:00,
2013-06-12 20:40:00,87.5,73.3,29.75,West,260,0.0,0.0,63,0.00,CLR,SKC,0.00,WeatherDisplay:10.37,2013-06-13 01:40:00,
2013-06-12 20:45:00,87.2,73.1,29.75,West,260,0.0,0.0,63,0.00,CLR,SKC,0.00,WeatherDisplay:10.37,2013-06-13 01:45:00,
2013-06-12 20:50:00,86.9,73.3,29.75,West,260,0.0,0.0,64,0.00,CLR,SKC,0.00,WeatherDisplay:10.37,2013-06-13 01:50:00,
2013-06-12 20:55:00,86.7,73.1,29.75,West,260,0.0,0.0,64,0.00,CLR,SKC,0.00,WeatherDisplay:10.37,2013-06-13 01:55:00,
2013-06-12 21:00:00,86.7,73.1,29.75,West,261,0.0,0.0,64,0.00,CLR,SKC,0.00,WeatherDisplay:10.37,2013-06-13 02:00:00,
2013-06-12 21:05:00,86.6,73.0,29.76,West,263,0.0,2.0,64,0.00,CLR,SKC,0.00,WeatherDisplay:10.37,2013-06-13 02:05:00,
2013-06-12 21:10:00,86.6,73.4,29.76,West,263,0.0,0.0,65,0.00,CLR,SKC,0.00,WeatherDisplay:10.37,2013-06-13 02:10:00,
2013-06-12 21:15:00,86.4,73.3,29.76,West,264,1.0,3.0,65,0.00,CLR,SKC,0.00,WeatherDisplay:10.37,2013-06-13 02:15:00,
2013-06-12 21:20:00,86.4,72.8,29.77,West,267,0.0,2.0,64,0.00,CLR,SKC,0.00,WeatherDisplay:10.37,2013-06-13 02:20:00,
2013-06-12 21:25:00,86.5,72.0,29.77,West,272,0.0,2.0,62,0.00,CLR,SKC,0.00,WeatherDisplay:10.37,2013-06-13 02:25:00,
2013-06-12 21:30:00,86.6,72.0,29.77,West,271,0.0,2.0,62,0.00,CLR,SKC,0.00,WeatherDisplay:10.37,2013-06-13 02:30:00,
2013-06-12 21:40:00,86.3,71.7,29.78,West,272,0.0,2.0,62,0.00,CLR,SKC,0.00,WeatherDisplay:10.37,2013-06-13 02:40:00,
2013-06-12 21:45:00,86.1,71.1,29.78,WNW,296,2.0,8.0,61,0.00,CLR,SKC,0.00,WeatherDisplay:10.37,2013-06-13 02:45:00,
2013-06-12 21:50:00,85.9,70.4,29.78,North,10,1.0,7.0,60,0.00,CLR,SKC,0.00,WeatherDisplay:10.37,2013-06-13 02:50:00,
2013-06-12 21:55:00,85.6,70.2,29.79,North,357,3.0,10.0,60,0.00,CLR,SKC,0.00,WeatherDisplay:10.37,2013-06-13 02:55:00,
2013-06-12 22:00:00,85.4,69.5,29.79,North,1,2.0,8.0,59,0.00,CLR,SKC,0.00,WeatherDisplay:10.37,2013-06-13 03:00:00,
2013-06-12 22:05:00,85.2,69.2,29.80,North,11,1.0,13.0,59,0.00,CLR,SKC,0.00,WeatherDisplay:10.37,2013-06-13 03:05:00,
2013-06-12 22:10:00,84.9,69.0,29.80,North,359,2.0,10.0,59,0.00,CLR,SKC,0.00,WeatherDisplay:10.37,2013-06-13 03:10:00,
2013-06-12 22:20:00,84.3,67.9,29.81,North,8,5.0,10.0,58,0.00,CLR,SKC,0.00,WeatherDisplay:10.37,2013-06-13 03:20:00,
2013-06-12 22:25:00,84.0,67.7,29.81,NNW,335,3.0,13.0,58,0.00,CLR,SKC,0.00,WeatherDisplay:10.37,2013-06-13 03:25:00,
2013-06-12 22:30:00,83.7,67.4,29.82,NNW,332,6.0,10.0,58,0.00,CLR,SKC,0.00,WeatherDisplay:10.37,2013-06-13 03:30:00,
2013-06-12 22:35:00,83.5,67.7,29.82,North,354,2.0,21.0,59,0.00,CLR,SKC,0.00,WeatherDisplay:10.37,2013-06-13 03:35:00,
2013-06-12 22:40:00,83.2,67.4,29.82,NNE,15,7.0,20.0,59,0.00,CLR,SKC,0.00,WeatherDisplay:10.37,2013-06-13 03:40:00,
2013-06-12 22:45:00,83.0,67.2,29.83,NNW,348,9.0,24.0,59,0.00,CLR,SKC,0.00,WeatherDisplay:10.37,2013-06-13 03:45:00,
2013-06-12 22:50:00,82.7,66.4,29.83,NNW,346,8.0,22.0,58,0.00,CLR,SKC,0.00,WeatherDisplay:10.37,2013-06-13 03:50:00,
2013-06-12 22:55:00,82.4,66.1,29.83,NNW,344,9.0,16.0,58,0.00,CLR,SKC,0.00,WeatherDisplay:10.37,2013-06-13 03:55:00,
2013-06-12 23:00:00,82.1,65.8,29.83,North,357,3.0,12.0,58,0.00,CLR,SKC,0.00,WeatherDisplay:10.37,2013-06-13 04:00:00,
2013-06-12 23:05:00,81.8,66.0,29.83,North,9,3.0,13.0,59,0.00,CLR,SKC,0.00,WeatherDisplay:10.37,2013-06-13 04:05:00,
2013-06-12 23:10:00,81.4,65.7,29.83,North,354,10.0,19.0,59,0.00,CLR,SKC,0.00,WeatherDisplay:10.37,2013-06-13 04:10:00,
2013-06-12 23:15:00,81.2,66.0,29.84,North,3,6.0,19.0,60,0.00,CLR,SKC,0.00,WeatherDisplay:10.37,2013-06-13 04:15:00,
2013-06-12 23:20:00,80.8,65.1,29.84,North,8,5.0,17.0,59,0.00,CLR,SKC,0.00,WeatherDisplay:10.37,2013-06-13 04:20:00,
2013-06-12 23:25:00,80.4,65.2,29.84,North,11,10.0,15.0,60,0.00,CLR,SKC,0.00,WeatherDisplay:10.37,2013-06-13 04:25:00,
2013-06-12 23:30:00,80.1,64.4,29.85,NNE,14,7.0,20.0,59,0.00,CLR,SKC,0.00,WeatherDisplay:10.37,2013-06-13 04:30:00,
2013-06-12 23:35:00,79.7,63.6,29.85,North,3,10.0,26.0,58,0.00,CLR,SKC,0.00,WeatherDisplay:10.37,2013-06-13 04:35:00,
2013-06-12 23:40:00,79.3,63.7,29.85,North,1,10.0,18.0,59,0.00,CLR,SKC,0.00,WeatherDisplay:10.37,2013-06-13 04:40:00,
2013-06-12 23:45:00,78.9,63.8,29.85,NNW,348,8.0,21.0,60,0.00,CLR,SKC,0.00,WeatherDisplay:10.37,2013-06-13 04:45:00,
2013-06-12 23:50:00,78.5,63.4,29.86,NNW,345,2.0,16.0,60,0.00,CLR,SKC,0.00,WeatherDisplay:10.37,2013-06-13 04:50:00,
2013-06-12 23:55:00,78.0,63.0,29.86,North,350,7.0,24.0,60,0.00,CLR,SKC,0.00,WeatherDisplay:10.37,2013-06-13 04:55:00,